Date String (YYYY-MM-DD hh:mm:ss) UTC,Instrument flags,Ambient pressure (hPa),Sample flow (lpm),Bypass flow (lpm),Sample temperature (°C),Ambient temperature (°C),ASC tube jacket temperature (°C),LED temperature (°C),Box temperature (°C),Sample RH (%),Span deviation,Mass concentration (μg/m³),Mass concentration (μg/m³),Mass concentration (μg/m³)
DateTimeUTC,F1_M11,P_M11,Q1_M11,Q2_M11,T1_M11,T2_M11,T3_M11,T4_M11,T5_M11,U1_M11,ZSPAN_M11,X2_M11,X0_M11,X1_M11
2022-09-30 07:00:00,,0827.2,5.01,0.00,30.7,29.4,00.0,39.4,32.5,16.5,0000.0,0003.83,0007.93,0003.40
2022-09-30 07:01:00,,0827.2,5.01,0.00,30.7,29.3,00.0,39.4,32.5,16.5,0000.0,0003.80,0007.50,0003.38
2022-09-30 07:02:00,,0827.2,4.99,0.00,30.7,29.3,00.0,39.4,32.5,16.5,0000.0,0003.76,0007.34,0003.36
2022-09-30 07:03:00,,0827.2,5.00,0.00,30.7,29.3,00.0,39.4,32.5,16.4,0000.0,0003.70,0007.16,0003.33
2022-09-30 07:04:00,,0827.2,5.01,0.00,30.7,29.3,00.0,39.4,32.5,16.5,0000.0,0003.67,0007.15,0003.30
2022-09-30 07:05:00,,0827.2,4.99,0.00,30.7,29.3,00.0,39.4,32.5,16.6,0000.0,0003.64,0007.24,0003.27
2022-09-30 07:06:00,,0827.2,5.00,0.00,30.7,29.3,00.0,39.5,32.5,16.7,0000.0,0003.61,0007.18,0003.26
2022-09-30 07:07:00,,0827.2,5.01,0.00,30.7,29.3,00.0,39.5,32.5,16.7,0000.0,0003.57,0007.44,0003.25
2022-09-30 07:08:00,,0827.2,4.99,0.00,30.7,29.2,00.0,39.5,32.5,16.7,0000.0,0003.57,0008.14,0003.25
2022-09-30 07:09:00,,0827.2,4.99,0.00,30.7,27.8,00.0,39.4,32.4,16.7,0000.0,0003.55,0008.05,0003.25
2022-09-30 07:10:00,,0827.2,5.01,0.00,30.6,26.8,00.0,39.3,32.3,16.7,0000.0,0003.57,0008.09,0003.25
2022-09-30 07:11:00,,0827.2,5.00,0.00,30.6,26.8,00.0,39.3,32.2,16.6,0000.0,0003.55,0008.22,0003.24
2022-09-30 07:12:00,,0827.1,4.99,0.00,30.4,27.0,00.0,39.2,32.0,16.8,0000.0,0003.52,0008.76,0003.22
2022-09-30 07:13:00,,0827.1,4.99,0.00,30.4,27.4,00.0,39.2,32.0,16.9,0000.0,0003.52,0008.78,0003.21
2022-09-30 07:14:00,,0827.1,5.00,0.00,30.3,27.7,00.0,39.2,31.9,16.8,0000.0,0003.50,0008.77,0003.20
2022-09-30 07:15:00,,0827.3,4.99,0.00,30.3,27.9,00.0,39.1,31.9,17.0,0000.0,0003.50,0008.71,0003.20
2022-09-30 07:16:00,,0827.2,5.00,0.00,30.2,28.1,00.0,39.1,31.9,16.9,0000.0,0003.50,0008.69,0003.19
2022-09-30 07:17:00,,0827.3,5.00,0.00,30.2,28.3,00.0,39.1,31.9,17.1,0000.0,0003.50,0009.00,0003.18
2022-09-30 07:18:00,,0827.2,5.00,0.00,30.2,28.4,00.0,39.1,31.9,17.1,0000.0,0003.52,0009.05,0003.18
2022-09-30 07:19:00,,0827.0,4.99,0.00,30.2,28.5,00.0,39.0,31.9,17.1,0000.0,0003.51,0008.72,0003.17
2022-09-30 07:20:00,,0827.4,5.00,0.00,30.2,28.5,00.0,39.0,32.0,17.1,0000.0,0003.52,0009.48,0003.16
2022-09-30 07:21:00,,0827.2,5.01,0.00,30.2,28.6,00.0,39.0,32.0,17.1,0000.0,0003.49,0009.73,0003.14
2022-09-30 07:22:00,,0827.2,4.99,0.00,30.2,28.6,00.0,39.0,32.0,17.0,0000.0,0003.47,0009.45,0003.14
2022-09-30 07:23:00,,0827.0,5.01,0.00,30.2,28.7,00.0,39.0,32.0,17.0,0000.0,0003.49,0008.88,0003.14
2022-09-30 07:24:00,,0827.1,4.99,0.00,30.2,28.7,00.0,39.0,32.0,17.1,0000.0,0003.49,0008.92,0003.14
2022-09-30 07:25:00,,0827.1,5.00,0.00,30.2,28.7,00.0,39.0,32.0,17.1,0000.0,0003.52,0009.69,0003.15
2022-09-30 07:26:00,,0827.2,5.00,0.00,30.2,28.8,00.0,39.0,32.0,17.1,0000.0,0003.52,0009.79,0003.16
2022-09-30 07:27:00,,0827.0,4.99,0.00,30.2,28.8,00.0,39.0,32.0,17.1,0000.0,0003.52,0009.62,0003.17
2022-09-30 07:28:00,,0827.3,5.00,0.00,30.2,28.8,00.0,39.0,32.0,17.0,0000.0,0003.52,0008.90,0003.17
2022-09-30 07:29:00,,0827.2,5.00,0.00,30.2,28.8,00.0,39.0,32.1,16.9,0000.0,0003.51,0008.46,0003.17
2022-09-30 07:30:00,,0827.1,4.99,0.00,30.2,28.8,00.0,39.0,32.1,16.8,0000.0,0003.53,0008.09,0003.17
2022-09-30 07:31:00,,0827.2,5.00,0.00,30.3,28.9,00.0,39.0,32.1,16.8,0000.0,0003.51,0007.07,0003.17
2022-09-30 07:32:00,,0827.1,5.01,0.00,30.3,28.9,00.0,39.0,32.1,16.7,0000.0,0003.51,0006.71,0003.16
2022-09-30 07:33:00,,0827.1,4.99,0.00,30.3,28.9,00.0,39.0,32.1,16.7,0000.0,0003.56,0006.91,0003.16
2022-09-30 07:34:00,,0827.1,5.00,0.00,30.3,28.9,00.0,39.0,32.1,16.7,0000.0,0003.56,0006.95,0003.16
2022-09-30 07:35:00,,0827.1,5.01,0.00,30.3,28.9,00.0,39.0,32.1,16.6,0000.0,0003.57,0006.98,0003.16
2022-09-30 07:36:00,,0827.1,4.98,0.00,30.3,28.9,00.0,39.1,32.1,16.6,0000.0,0003.57,0005.77,0003.16
2022-09-30 07:37:00,,0827.2,5.01,0.00,30.3,29.0,00.0,39.1,32.1,16.6,0000.0,0003.58,0005.57,0003.16
2022-09-30 07:38:00,,0827.1,5.00,0.00,30.3,29.0,00.0,39.1,32.2,16.6,0000.0,0003.57,0005.49,0003.16
2022-09-30 07:39:00,,0827.2,4.99,0.00,30.3,29.0,00.0,39.1,32.2,16.6,0000.0,0003.56,0005.45,0003.16
2022-09-30 07:40:00,,0827.1,5.01,0.00,30.4,29.0,00.0,39.1,32.2,16.6,0000.0,0003.53,0005.62,0003.16
2022-09-30 07:41:00,,0827.1,4.99,0.00,30.4,29.0,00.0,39.1,32.2,16.7,0000.0,0003.53,0005.80,0003.18
2022-09-30 07:42:00,,0827.1,5.01,0.00,30.4,29.1,00.0,39.1,32.2,16.9,0000.0,0003.54,0005.78,0003.19
2022-09-30 07:43:00,,0827.1,5.00,0.00,30.4,29.1,00.0,39.1,32.2,17.0,0000.0,0003.55,0005.93,0003.21
2022-09-30 07:44:00,,0827.1,4.99,0.00,30.4,29.1,00.0,39.1,32.2,16.7,0000.0,0003.53,0006.75,0003.23
2022-09-30 07:45:00,,0827.2,5.01,0.00,30.4,29.1,00.0,39.1,32.2,16.7,0000.0,0003.53,0006.86,0003.23
2022-09-30 07:46:00,,0827.2,4.99,0.00,30.4,29.1,00.0,39.1,32.3,16.7,0000.0,0003.50,0006.76,0003.23
2022-09-30 07:47:00,,0827.2,5.00,0.00,30.4,29.1,00.0,39.2,32.3,16.7,0000.0,0003.49,0006.72,0003.23
2022-09-30 07:48:00,,0827.2,5.01,0.00,30.4,29.2,00.0,39.2,32.3,16.8,0000.0,0003.51,0006.80,0003.24
2022-09-30 07:49:00,,0827.2,4.98,0.00,30.5,29.2,00.0,39.2,32.3,16.7,0000.0,0003.55,0007.11,0003.25
2022-09-30 07:50:00,,0827.2,5.00,0.00,30.5,29.2,00.0,39.2,32.3,16.9,0000.0,0003.59,0007.42,0003.25
2022-09-30 07:51:00,,0827.2,5.00,0.00,30.5,29.2,00.0,39.2,32.3,16.9,0000.0,0003.60,0007.51,0003.26
2022-09-30 07:52:00,,0827.2,5.00,0.00,30.5,29.2,00.0,39.2,32.3,16.9,0000.0,0003.60,0007.60,0003.27
2022-09-30 07:53:00,,0827.2,5.00,0.00,30.5,29.2,00.0,39.2,32.3,16.9,0000.0,0003.63,0008.50,0003.27
2022-09-30 07:54:00,,0827.2,4.98,0.00,30.5,29.2,00.0,39.2,32.3,16.9,0000.0,0003.63,0008.44,0003.27
2022-09-30 07:55:00,,0827.2,5.01,0.00,30.5,29.2,00.0,39.2,32.4,16.8,0000.0,0003.64,0008.22,0003.27
2022-09-30 07:56:00,,0827.2,5.00,0.00,30.5,29.2,00.0,39.3,32.3,16.8,0000.0,0003.65,0008.78,0003.28
2022-09-30 07:57:00,,0827.2,4.99,0.00,30.5,29.2,00.0,39.3,32.4,16.8,0000.0,0003.71,0009.00,0003.30
2022-09-30 07:58:00,,0827.2,5.01,0.00,30.5,29.2,00.0,39.3,32.4,16.6,0000.0,0003.73,0009.06,0003.30
2022-09-30 07:59:00,,0827.2,4.99,0.00,30.5,29.2,00.0,39.3,32.4,16.7,0000.0,0003.71,0009.00,0003.30
